sat.trackr.live / text

‹ back to catalog

STARLINK-5330

NORAD 55282 · 2023-010P

PAYLOAD ACTIVE UNKNOWN

§ Identity

Operator
Country
US
Launch date
2023-01-19
Launch site
AFWTR
Launch vehicle
Mass (kg)
RCS (m²)

Purposes: comms

External: N2YO · Heavens-Above · Gunter

§ Orbital elements

Epoch: 2026-05-25T03:40:59.299104Z

Period
96.11 min
Inclination
69.9993°
Eccentricity
0.0003766
Mean motion
14.98331585 rev/d
Perigee alt
569.4 km
Apogee alt
574.7 km
Semi-major
6,950.2 km
B*
-1.2029e-5
RAAN
211.4894°
Arg perigee
270.8772°
Mean anomaly
89.1955°
Rev number
18,423

§ Raw data

STARLINK-53301 55282U 23010P   26145.15346411 -.00000237  00000+0 -12029-4 0  99922 55282  69.9993 211.4894 0003766 270.8772  89.1955 14.98331585184235

JSON: /api/v1/satellites/55282 · /tle

For live sub-satellite position, see the globe view (requires WebGL).

§ Visibility from observer

Set your observer location to see the next 7 days of passes ≥ 10°. The values pass through the URL so the page stays shareable.

No JS? Fill the form by hand. The geolocation button needs JavaScript.